CAPE
10 218 357 344 8 0 0 0 0 0 2 0 0 549 513 516 463 212 989 1263 1312 1437 1653 1798 2144 2054 1975 1588 1284 994 754 429 344 186 17 83 111 84 87 27 7 5 4 2 2 0 0 0 0
4 47 328 151 1 0 0 0 0 0 0 0 0 297 489 452 554 926 1488 1466 1355 1475 1431 1508 1937 1998 1766 1489 1264 1051 868 568 360 306 79 10 7 12 21 14 12 10 8 5 3 3 1 7 62
51 164 221 63 0 0 0 0 0 0 0 0 0 461 743 553 571 843 1446 1395 1312 1307 1331 1506 1916 2017 1797 1484 1244 1131 1007 645 496 329 126 9 7 12 14 11 11 12 13 12 8 10 40 150 192
139 277 303 67 0 0 0 0 0 0 0 0 266 1025 1052 898 804 1275 1366 1290 1053 1204 1327 1744 2016 2007 1568 1385 1483 1365 1243 865 651 523 150 7 4 9 11 14 31 60 74 29 16 59 101 123 124
221 162 225 22 0 0 0 0 1 0 0 0 0 1023 1009 1151 966 1302 1317 1144 914 1097 1222 1567 1951 1701 1551 1677 1455 1433 1341 1124 797 729 19 0 3 8 17 21 59 71 370 120 106 102 133 103 74
184 125 60 52 0 0 0 0 1 0 0 0 37 1094 852 1221 966 1309 1159 1136 1105 1001 1150 1392 1479 1517 1543 1529 1434 1344 1316 1171 983 918 136 0 0 8 22 26 88 74 72 67 58 80 92 73 23
89 164 37 27 0 0 0 7 0 0 0 0 0 955 919 1257 959 1216 1249 1097 1164 1054 1228 1381 1218 1292 1402 1275 1310 1407 1439 1151 1052 907 471 96 11 27 13 91 109 6 8 69 84 47 29 11 0
140 83 63 7 0 0 2 8 0 0 0 21 179 930 1021 1223 1165 1245 1392 1207 1108 1116 1326 1273 1191 1289 1138 978 1058 966 775 574 608 493 190 21 13 3 69 60 95 79 38 50 100 63 22 0 0
106 51 16 0 0 0 32 2 0 0 4 573 903 1081 1284 1469 1410 1619 1572 1534 1164 1130 1153 1166 1133 1134 981 945 674 353 157 60 12 36 162 32 9 0 0 0 31 85 83 62 28 35 32 6 0
159 37 0 5 17 6 37 13 14 43 354 857 1345 1413 1628 1610 1334 1845 1798 1698 1525 1173 1136 1138 1138 1008 905 826 368 205 32 0 0 0 76 127 22 0 0 0 9 60 59 64 52 20 9 0 0
32 3 0 0 63 13 38 30 17 20 170 627 946 1416 1669 1765 1547 1616 1812 1735 1372 1262 1236 1127 1198 1120 849 483 322 129 9 0 0 0 0 24 165 21 31 0 20 14 16 17 16 4 0 0 0
9 0 13 15 17 36 38 25 22 0 31 763 1201 1615 1609 1907 1694 1369 1489 1559 1526 1276 1304 1116 1215 1302 889 404 397 204 99 59 59 0 0 0 45 196 44 30 22 32 30 32 14 28 14 0 0
22 3 0 27 1 23 16 23 0 0 40 403 1158 1516 1541 1645 1599 1370 1320 1389 1662 1365 1324 1299 1355 1364 1062 601 588 328 237 216 135 3 0 0 20 222 157 56 36 34 42 62 53 70 62 38 2
25 11 4 7 25 0 6 21 15 4 12 213 936 1292 1457 1508 1374 1291 1171 1285 1410 1393 1510 1636 1362 1249 1000 791 568 372 341 299 127 10 0 0 0 37 214 76 64 61 72 71 65 68 27 11 3
14 22 33 88 36 2 0 27 0 7 6 60 131 600 1091 1317 1373 1143 1133 1263 1179 1271 1330 1469 1475 1368 1148 935 677 474 386 177 210 142 0 0 0 0 0 135 116 87 98 88 78 26 0 0 0
25 19 0 17 0 2 16 8 0 0 23 12 16 264 563 1005 1160 1108 1061 1041 1230 1162 1292 1416 1300 1389 1259 1038 672 532 516 232 262 200 123 0 0 0 11 33 93 47 47 48 13 0 0 0 0
0 0 0 10 0 35 0 0 0 7 0 0 2 12 337 372 541 788 934 1043 1165 1183 1253 1376 1396 1328 1414 1193 754 642 550 389 315 260 180 87 4 0 2 23 36 29 17 9 0 0 0 0 0
0 0 0 0 14 41 0 0 0 0 8 1 9 0 47 11 0 145 282 926 1070 1337 1208 1321 1242 1295 1367 1346 924 823 674 506 403 292 273 252 188 109 57 46 38 2 0 0 0 0 0 0 0
0 0 0 0 34 2 0 0 0 0 0 2 0 6 1 0 0 0 321 627 1155 1397 1300 1312 1295 1210 1299 1335 1169 920 800 705 827 490 418 344 306 226 147 111 87 57 11 0 1 0 8 0 0
0 0 0 0 40 14 0 0 0 0 0 1 0 17 17 14 0 0 255 812 1247 1612 1451 1247 1204 1190 1392 1230 1239 1130 994 907 755 682 594 543 429 325 272 177 143 138 155 155 48 23 30 21 8
0 0 0 0 26 34 0 0 0 0 9 11 21 30 1 2 0 0 99 855 1200 1282 1355 1434 1290 1260 1239 1321 1049 975 784 689 718 725 666 518 342 346 277 227 218 280 250 255 238 152 155 147 71
0 0 0 26 0 0 41 0 0 0 0 1 36 7 0 0 0 0 22 498 1093 1287 1228 1326 1421 1340 1322 1165 1183 982 833 619 598 742 440 299 254 266 249 337 329 303 307 294 251 245 232 226 139
0 0 0 0 1 0 9 0 0 0 0 0 0 0 0 0 0 0 0 390 939 1145 1229 1371 1435 1415 1462 1297 1069 872 549 446 379 286 221 226 186 165 181 162 187 221 199 190 205 227 222 186 152
0 1 1 1 14 0 0 0 0 0 0 0 0 0 0 0 0 0 0 124 959 1133 1230 1312 1250 1336 1402 1134 845 643 411 195 187 156 126 109 187 209 217 212 177 129 107 81 132 146 151 171 152
8 1 15 4 0 0 0 4 0 0 0 0 0 0 0 0 0 0 0 17 700 1044 1276 1125 1027 1091 1151 844 360 266 103 123 117 85 31 5 6 38 90 137 161 25 96 58 89 118 77 140 159
6 0 0 7 0 0 2 4 0 0 0 0 0 0 0 0 0 0 0 0 7 19 32 631 693 832 669 423 181 66 48 52 107 73 3 0 7 3 11 20 6 3 34 43 47 93 111 172 193
12 3 0 0 0 0 0 0 0 0 0 0 0 0 0 0 0 0 0 1 9 21 17 64 243 320 486 556 501 356 80 50 29 1 0 0 0 0 0 0 0 0 0 3 14 23 16 33 74
7 2 3 1 0 0 0 0 0 0 0 0 0 0 0 0 0 0 0 1 12 29 30 19 2 41 60 67 49 59 118 145 87 32 23 5 15 28 37 23 16 20 7 0 0 0 0 0 3
0 0 0 0 3 6 0 0 0 0 0 0 0 0 0 0 0 0 0 1 2 6 4 0 0 0 0 11 33 55 33 54 66 47 25 12 4 4 0 2 3 0 0 0 0 0 0 0 0
0 0 0 0 0 3 0 0 0 0 0 0 0 0 1 7 0 0 0 0 0 0 0 0 0 0 0 10 37 44 52 36 45 12 1 2 0 0 0 0 0 0 0 0 0 0 0 0 0
CIN
-156 -87 -43 -36 -68 0 0 0 0 0 -3 0 0 -89 -133 -112 -65 -73 -129 -127 -111 -48 -4 -3 -1 0 0 0 -1 0 0 -26 -44 -106 -196 -146 -113 -120 -101 -206 0 0 0 0 0 0 0 0 -3
-233 -126 -17 -27 -2 0 0 0 0 0 0 0 0 -86 -90 -133 -128 -129 -98 -23 -90 -47 -22 -3 -1 0 0 -1 0 0 0 -9 -35 -40 -158 0 0 -116 -259 -194 0 0 0 0 0 0 0 -5 -36
-129 -62 -19 -4 0 0 0 0 0 0 0 0 0 -57 -63 -101 -102 -121 -109 -47 -92 -40 -20 -2 -1 0 0 0 -1 0 0 -4 -11 -25 -86 0 0 0 0 0 0 0 0 0 0 0 -6 -76 -70
-26 -32 -27 -3 0 0 0 0 0 0 0 0 -109 -127 -78 -148 -122 -125 -93 -74 -130 -60 -14 -2 0 0 -2 -2 0 0 0 0 -2 -7 -61 0 0 0 0 0 -266 -177 -136 -19 0 -14 -107 -92 -95
-13 -27 -1 -4 0 0 0 0 -71 0 0 0 0 -77 -75 -67 -73 -67 -108 -68 -136 -64 -20 -2 0 -3 -4 0 0 0 0 0 0 -1 -189 0 0 0 0 -20 -196 -159 -18 -93 -98 -95 -82 -52 -26
-2 -16 -11 -6 0 0 0 0 -9 0 0 0 -7 -104 -85 -31 -69 -43 -81 -71 -70 -86 -29 -2 -7 -7 -4 0 0 0 0 0 0 0 -89 0 0 0 -316 -273 -144 -166 -91 -35 -34 -60 -55 -35 -45
-11 -1 -2 -16 0 0 0 -20 0 0 0 0 0 -90 -64 -42 -27 -24 -36 -98 -54 -75 -33 -2 -10 -8 -3 -2 -1 0 0 0 0 0 -7 -104 -294 -228 -290 -150 -129 0 -1 -49 -74 -68 -97 -88 0
-5 -11 -6 -10 0 0 -52 -43 0 0 0 -110 -136 -77 -35 -33 -42 -7 -33 -60 -59 -71 -29 -20 -18 -1 -3 -8 -7 -6 -25 -32 -11 -19 -48 -241 -260 -228 -155 -173 -143 -167 -93 -96 -107 -87 -138 0 0
-5 -4 -4 0 0 0 -53 -60 0 0 -13 -93 -79 -74 -109 -75 -27 -40 -39 -11 -29 -58 -49 -28 -22 -17 -19 -12 -24 -50 -109 -138 -159 -133 -58 -177 -257 0 0 0 -161 -149 -87 -123 -175 -167 -162 -78 0
-1 -2 0 -5 -47 -21 -28 -31 -11 -60 -80 -74 -57 -48 -52 -58 -24 -19 -12 -23 -22 -43 -41 -40 -21 -32 -31 -21 -97 -125 -180 0 0 0 -120 -88 -207 0 0 0 -108 -141 -151 -147 -171 -222 -224 0 0
-8 0 0 0 -2 -20 -17 -46 -3 -22 -69 -89 -63 -25 -10 -29 -46 0 -3 -7 -41 -42 -37 -40 -20 -27 -42 -79 -105 -156 -181 0 0 0 0 -48 -98 -198 -144 0 -224 -265 -270 -268 -285 -77 0 0 0
-2 -1 -5 -8 -3 -9 -13 -8 -132 0 -44 -89 -69 -61 -41 -11 -25 -3 0 -13 -26 -35 -32 -36 -26 -13 -28 -98 -92 -139 -143 -162 -158 0 0 0 -60 -117 -161 -187 -262 -247 -261 -250 -309 -210 -216 -16 0
-2 -5 0 -1 -1 -2 -5 -3 0 0 -14 -55 -44 -44 -32 -8 -17 -49 -2 -15 -5 -17 -23 -33 -20 -8 -13 -75 -76 -93 -123 -122 -147 -40 0 0 -150 -117 -129 -173 -241 -253 -246 -208 -195 -163 -170 -174 -65
-2 -3 -8 -18 -6 0 0 -8 -10 -60 -6 -27 -41 -45 -37 -16 -15 -24 -25 -19 -18 -16 -16 -18 -11 -18 -35 -63 -75 -86 -76 -96 -134 -57 0 0 0 -180 -122 -199 -184 -191 -176 -168 -170 -159 -198 -181 -61
0 0 -18 -17 -16 -10 0 -3 0 -21 -8 -13 -13 -38 -38 -34 -21 -32 -22 -23 -27 -21 -34 -22 -9 -6 -26 -48 -65 -70 -76 -121 -118 -132 0 0 0 0 0 -156 -147 -153 -142 -143 -143 -177 0 0 0
-3 -3 0 -12 0 0 -2 -1 0 0 -57 0 -4 -18 -28 -31 -49 -38 -27 -27 -23 -29 -22 -19 -14 -4 -9 -33 -78 -70 -60 -100 -108 -122 -136 0 0 0 -236 -201 -161 -160 -160 -144 -137 0 0 0 0
-1 0 0 -1 -1 -6 0 0 0 -7 0 0 -2 -4 -13 -41 -49 -65 -52 -21 -44 -49 -27 -17 -15 -13 -11 -30 -123 -82 -83 -80 -97 -110 -135 -158 -114 0 -263 -195 -179 -180 -196 -206 0 0 0 0 0
0 0 0 0 -8 -33 0 0 0 -1 -4 -1 0 0 -9 -70 0 -79 -98 -74 -44 -28 -46 -20 -31 -7 -10 -5 -65 -78 -101 -96 -71 -87 -103 -97 -110 -153 -189 -194 -197 -103 0 -22 0 0 0 0 0
0 0 0 0 -4 -30 0 0 0 0 0 -11 0 -12 -2 -4 0 -1 -67 -76 -63 -20 -30 -38 -34 -41 -15 -2 -18 -34 -65 -64 -15 -48 -48 -57 -75 -82 -85 -112 -124 -142 -202 0 -217 -1 -164 0 0
0 0 0 0 -2 -2 0 0 0 0 0 0 0 -7 -2 -28 -11 0 -84 -39 -29 -17 -20 -34 -51 -59 -27 -21 -9 -7 -10 -6 -18 -10 -8 -2 -6 -20 -31 -34 -53 -46 -54 -50 -86 -104 -91 -89 -78
0 0 0 0 -12 -21 0 0 0 0 0 -5 -3 -2 -8 -2 0 0 -74 -43 -35 -20 -20 -29 -57 -47 -54 -34 -40 -17 -10 -12 -8 -6 -11 -11 -42 -49 -12 -3 -18 -3 -3 -8 -13 -36 -24 -19 -28
0 -1 0 -5 -1 0 -15 0 0 0 0 -1 -6 -5 0 0 0 0 -112 -57 -41 -32 -23 -26 -32 -56 -45 -51 -33 -35 -35 -27 -31 -6 -30 -8 -38 -23 -19 -10 -18 -20 -11 -21 -15 -11 -9 -4 -33
0 -16 0 0 0 0 -1 0 0 0 0 0 0 0 0 0 0 0 0 -55 -52 -44 -40 -27 -14 -30 -34 -29 -30 -33 -39 -44 -34 -24 -33 -40 0 -46 -40 -55 -25 -40 -43 -24 -19 -21 -20 -30 -22
0 0 -3 -6 -3 0 0 0 0 0 0 0 0 0 0 0 0 0 0 -110 -49 -38 -36 -28 -6 -9 -15 -31 -38 -30 -32 -9 -98 -54 -30 -32 -43 -35 -36 -35 -37 -50 -37 -42 -44 -45 -44 -34 -28
-5 -17 -7 -1 0 0 -1 -3 0 0 0 0 0 0 0 0 0 0 0 -216 -39 -32 -35 -29 -31 -34 -18 -18 -39 -55 -44 -37 -30 -27 -8 -3 -57 -71 -46 -36 -16 -24 -34 -83 -59 -32 -38 -62 -74
-14 0 0 -7 0 0 -13 -2 0 0 0 0 0 0 0 0 0 0 0 0 -243 -213 -183 -48 -56 -47 -40 -26 -134 -160 -144 -122 -94 -112 -20 -2 -2 -1 -5 -139 -2 0 -88 -89 -76 -46 -17 -61 -58
-5 -8 0 0 0 0 0 0 0 0 0 0 0 0 0 0 0 0 0 -234 -218 -189 -191 -144 -51 -20 -56 -54 -58 -76 -40 -25 -21 -5 0 0 0 0 0 0 0 0 -11 -122 -98 -76 -70 -79 -40
-12 -24 -12 -6 0 0 0 0 0 0 0 0 0 0 0 0 0 0 0 -71 -148 -145 -167 -210 -152 -112 -44 -27 -26 -19 -120 -96 -103 -146 -41 -37 -26 -56 -46 -38 -57 -58 -29 0 0 0 0 0 -48
-20 0 0 0 -12 -7 0 0 0 0 0 0 0 0 0 0 0 0 0 -130 -211 -106 -51 0 0 0 0 -50 -24 -6 -34 -62 -58 -50 -8 -11 -14 -24 0 -18 -30 0 0 0 0 0 0 0 0
0 0 0 -4 0 -38 0 0 0 0 0 0 0 0 -62 -111 -126 0 0 0 0 0 0 0 0 0 0 -67 -34 -15 -9 -3 -5 -1 -6 -6 0 -1 -1 0 0 0 0 0 0 0 0 0 0
Wind_Speed
nan 65 67 66 nan nan nan nan nan nan nan nan nan 45 42 35 34 33 31 35 30 25 24 24 28 28 26 25 23 23 22 22 22 22 nan nan 21 nan nan nan nan nan nan nan nan nan nan nan nan
nan nan 66 65 nan nan nan nan nan nan nan nan nan 46 53 41 36 34 35 32 31 26 25 23 27 27 26 23 23 23 22 22 23 23 nan nan nan nan nan nan nan nan nan nan nan nan nan nan nan
nan 66 66 nan nan nan nan nan nan nan nan nan nan 54 46 39 41 39 36 29 32 26 24 24 28 27 25 23 21 22 22 22 23 23 23 nan nan nan nan nan nan nan nan nan nan nan nan 12 10
63 61 64 nan nan nan nan nan nan nan nan nan 53 52 47 40 35 39 25 28 32 27 25 26 28 25 24 22 22 23 22 23 23 23 23 nan nan nan nan nan nan nan nan nan nan nan 14 10 8
65 62 60 nan nan nan nan nan nan nan nan nan nan 47 44 40 41 32 36 32 30 28 26 23 26 25 24 25 24 24 22 23 22 24 nan nan nan nan nan nan nan nan 19 19 17 15 12 9 nan
65 58 nan nan nan nan nan nan nan nan nan nan nan 53 47 41 46 38 31 32 30 29 27 24 27 27 26 24 23 24 23 22 21 23 24 nan nan nan nan nan nan nan nan nan nan nan nan nan nan
nan 68 nan nan nan nan nan nan nan nan nan nan nan 55 52 43 45 42 36 34 36 33 30 27 27 27 25 24 23 22 23 24 22 21 24 nan nan nan nan nan 18 nan nan nan nan nan nan nan nan
66 nan nan nan nan nan nan nan nan nan nan nan 51 48 47 46 48 52 41 41 38 35 32 30 27 26 24 23 22 22 22 26 24 24 22 nan nan nan nan nan nan nan nan nan 14 nan nan nan nan
66 nan nan nan nan nan nan nan nan nan nan 60 57 55 45 45 53 53 44 39 35 35 36 34 29 26 24 25 24 25 26 nan nan nan 22 nan nan nan nan nan nan nan nan nan nan nan nan nan nan
60 nan nan nan nan nan nan nan nan nan 63 57 59 54 57 47 49 50 46 37 36 36 35 36 30 28 26 25 25 25 nan nan nan nan nan 19 nan nan nan nan nan nan nan nan nan nan nan nan nan
nan nan nan nan nan nan nan nan nan nan 57 54 47 57 47 49 45 44 45 40 38 40 39 38 34 30 29 28 26 24 nan nan nan nan nan nan 19 nan nan nan nan nan nan nan nan nan nan nan nan
nan nan nan nan nan nan nan nan nan nan nan 51 53 44 48 46 43 41 40 44 43 41 40 37 38 33 31 28 27 24 nan nan nan nan nan nan nan 20 nan nan nan nan nan nan nan nan nan nan nan
nan nan nan nan nan nan nan nan nan nan nan 64 57 56 46 46 47 49 44 44 44 43 42 40 39 35 31 26 26 25 22 22 21 nan nan nan nan 22 21 nan nan nan nan nan nan nan nan nan nan
nan nan nan nan nan nan nan nan nan nan nan 66 57 56 53 44 45 47 46 45 42 43 41 43 40 36 33 26 25 23 23 23 23 nan nan nan nan nan 21 nan nan nan nan nan nan nan nan nan nan
nan nan nan nan nan nan nan nan nan nan nan nan 57 54 53 48 48 42 43 46 49 41 43 44 40 36 35 26 25 24 21 23 23 23 nan nan nan nan nan 23 23 nan nan nan nan nan nan nan nan
nan nan nan nan nan nan nan nan nan nan nan nan nan 56 53 51 45 47 47 46 46 49 41 45 43 37 32 28 33 27 24 25 21 24 26 nan nan nan nan nan nan nan nan nan nan nan nan nan nan
nan nan nan nan nan nan nan nan nan nan nan nan nan nan 52 56 52 49 47 43 42 40 45 44 44 39 32 29 31 31 28 28 25 28 27 nan nan nan nan nan nan nan nan nan nan nan nan nan nan
nan nan nan nan nan nan nan nan nan nan nan nan nan nan nan nan nan 49 48 46 43 41 41 41 43 39 36 40 38 34 32 30 30 32 29 30 30 34 nan nan nan nan nan nan nan nan nan nan nan
nan nan nan nan nan nan nan nan nan nan nan nan nan nan nan nan nan nan 48 46 44 40 40 38 40 38 37 41 41 39 35 39 38 35 34 31 35 37 38 38 nan nan nan nan nan nan nan nan nan
nan nan nan nan nan nan nan nan nan nan nan nan nan nan nan nan nan nan 47 44 39 35 34 37 36 37 37 38 39 41 41 40 46 43 39 36 37 38 38 40 35 42 43 43 nan nan nan nan nan
nan nan nan nan nan nan nan nan nan nan nan nan nan nan nan nan nan nan nan 42 40 36 34 34 36 37 38 41 45 47 46 44 45 46 45 40 40 39 40 39 39 39 39 44 46 48 45 41 nan
nan nan nan nan nan nan nan nan nan nan nan nan nan nan nan nan nan nan nan 41 38 36 36 35 37 39 39 41 46 48 47 48 45 43 46 45 41 40 39 39 39 31 32 41 41 38 45 45 38
nan nan nan nan nan nan nan nan nan nan nan nan nan nan nan nan nan nan nan 35 38 40 38 36 36 36 40 44 45 49 54 52 54 46 47 50 44 46 47 44 44 45 40 33 30 30 36 37 42
nan nan nan nan nan nan nan nan nan nan nan nan nan nan nan nan nan nan nan 43 44 42 43 42 39 41 44 47 49 56 57 55 55 51 50 50 52 51 41 43 43 42 44 nan 38 33 39 39 44
nan nan nan nan nan nan nan nan nan nan nan nan nan nan nan nan nan nan nan nan 45 42 42 41 42 44 46 50 48 51 48 49 51 nan nan nan nan nan nan 52 42 nan nan nan nan 47 nan 48 42
nan nan nan nan nan nan nan nan nan nan nan nan nan nan nan nan nan nan nan nan nan nan nan 37 41 43 47 51 52 nan nan nan 55 nan nan nan nan nan nan nan nan nan nan nan nan nan 43 36 37
nan nan nan nan nan nan nan nan nan nan nan nan nan nan nan nan nan nan nan nan nan nan nan nan 42 45 46 49 49 50 nan nan nan nan nan nan nan nan nan nan nan nan nan nan nan nan nan nan nan
nan nan nan nan nan nan nan nan nan nan nan nan nan nan nan nan nan nan nan nan nan nan nan nan nan nan nan nan nan nan 50 55 nan nan nan nan nan nan nan nan nan nan nan nan nan nan nan nan nan
nan nan nan nan nan nan nan nan nan nan nan nan nan nan nan nan nan nan nan nan nan nan nan nan nan nan nan nan nan nan nan nan nan nan nan nan nan nan nan nan nan nan nan nan nan nan nan nan nan
nan nan nan nan nan nan nan nan nan nan nan nan nan nan nan nan nan nan nan nan nan nan nan nan nan nan nan nan nan nan nan nan nan nan nan nan nan nan nan nan nan nan nan nan nan nan nan nan nan
Wind_Direction
nan 211 215 218 nan nan nan nan nan nan nan nan nan 216 225 212 203 215 213 237 255 251 254 259 269 272 272 272 272 270 270 269 270 272 nan nan 267 nan nan nan nan nan nan nan nan nan nan nan nan
nan nan 217 219 nan nan nan nan nan nan nan nan nan 206 208 209 211 241 226 243 249 246 249 256 268 272 270 271 271 271 271 267 268 269 nan nan nan nan nan nan nan nan nan nan nan nan nan nan nan
nan 218 218 nan nan nan nan nan nan nan nan nan nan 214 207 208 222 219 235 238 247 244 248 258 270 271 274 272 274 274 272 271 269 268 269 nan nan nan nan nan nan nan nan nan nan nan nan 288 285
209 215 217 nan nan nan nan nan nan nan nan nan 217 224 212 204 212 219 260 249 245 245 245 258 269 270 277 279 273 274 273 275 273 271 266 nan nan nan nan nan nan nan nan nan nan nan 285 282 274
209 210 217 nan nan nan nan nan nan nan nan nan nan 216 215 202 211 248 262 239 242 245 247 255 270 269 272 272 273 275 274 276 277 274 nan nan nan nan nan nan nan nan 279 282 285 285 286 283 nan
205 206 nan nan nan nan nan nan nan nan nan nan nan 217 215 206 213 242 252 254 248 246 248 252 259 265 267 270 273 273 275 273 282 278 272 nan nan nan nan nan nan nan nan nan nan nan nan nan nan
nan 207 nan nan nan nan nan nan nan nan nan nan nan 212 217 213 220 221 239 243 248 248 249 248 253 259 263 267 271 277 276 272 266 277 274 nan nan nan nan nan 281 nan nan nan nan nan nan nan nan
202 nan nan nan nan nan nan nan nan nan nan nan 212 211 216 214 226 230 238 244 249 252 250 250 251 258 257 262 269 270 275 267 265 259 265 nan nan nan nan nan nan nan nan nan 280 nan nan nan nan
199 nan nan nan nan nan nan nan nan nan nan 215 216 211 217 226 229 236 240 242 245 246 252 252 252 256 256 254 261 263 261 nan nan nan 266 nan nan nan nan nan nan nan nan nan nan nan nan nan nan
200 nan nan nan nan nan nan nan nan nan 220 214 221 225 220 218 231 236 243 246 248 252 254 255 254 258 257 255 252 257 nan nan nan nan nan 252 nan nan nan nan nan nan nan nan nan nan nan nan nan
nan nan nan nan nan nan nan nan nan nan 222 224 229 234 232 220 224 230 234 242 248 250 250 257 257 256 258 256 249 248 nan nan nan nan nan nan 257 nan nan nan nan nan nan nan nan nan nan nan nan
nan nan nan nan nan nan nan nan nan nan nan 227 227 236 232 230 216 230 234 236 246 251 252 254 259 258 254 256 256 256 nan nan nan nan nan nan nan 258 nan nan nan nan nan nan nan nan nan nan nan
nan nan nan nan nan nan nan nan nan nan nan 206 225 228 230 227 225 216 227 231 238 245 250 250 255 260 257 256 259 258 255 254 261 nan nan nan nan 256 259 nan nan nan nan nan nan nan nan nan nan
nan nan nan nan nan nan nan nan nan nan nan 213 224 227 227 224 224 221 229 232 240 243 248 250 253 256 260 252 258 258 255 257 262 nan nan nan nan nan 266 nan nan nan nan nan nan nan nan nan nan
nan nan nan nan nan nan nan nan nan nan nan nan 207 223 224 225 225 224 221 232 235 238 241 249 248 249 254 254 255 253 253 263 262 264 nan nan nan nan nan 272 270 nan nan nan nan nan nan nan nan
nan nan nan nan nan nan nan nan nan nan nan nan nan 224 227 226 228 225 226 225 231 225 232 240 244 247 252 256 252 250 253 255 263 263 261 nan nan nan nan nan nan nan nan nan nan nan nan nan nan
nan nan nan nan nan nan nan nan nan nan nan nan nan nan 221 223 222 224 229 232 236 245 242 235 242 250 250 249 259 255 256 258 262 265 268 nan nan nan nan nan nan nan nan nan nan nan nan nan nan
nan nan nan nan nan nan nan nan nan nan nan nan nan nan nan nan nan 227 232 235 239 242 243 244 247 251 247 248 242 246 254 259 261 265 274 279 272 274 nan nan nan nan nan nan nan nan nan nan nan
nan nan nan nan nan nan nan nan nan nan nan nan nan nan nan nan nan nan 231 232 234 238 245 248 253 251 259 256 255 260 266 257 254 258 266 273 276 276 275 272 nan nan nan nan nan nan nan nan nan
nan nan nan nan nan nan nan nan nan nan nan nan nan nan nan nan nan nan 227 230 234 235 242 244 249 256 254 254 253 258 260 261 262 258 257 262 264 269 274 275 281 276 271 273 nan nan nan nan nan
nan nan nan nan nan nan nan nan nan nan nan nan nan nan nan nan nan nan nan 227 230 233 240 250 251 255 250 254 252 248 252 256 263 262 259 257 259 261 262 273 280 282 270 272 273 272 273 276 nan
nan nan nan nan nan nan nan nan nan nan nan nan nan nan nan nan nan nan nan 225 232 231 232 238 248 253 255 258 256 259 257 259 258 264 269 261 261 267 267 279 277 278 281 278 276 289 287 276 276
nan nan nan nan nan nan nan nan nan nan nan nan nan nan nan nan nan nan nan 221 226 235 238 239 248 256 261 261 258 253 256 257 260 259 265 273 274 274 269 273 281 284 283 282 294 298 297 290 285
nan nan nan nan nan nan nan nan nan nan nan nan nan nan nan nan nan nan nan 224 225 234 241 243 251 258 264 265 265 262 260 256 258 261 258 259 267 267 270 267 277 279 279 nan 283 287 291 285 287
nan nan nan nan nan nan nan nan nan nan nan nan nan nan nan nan nan nan nan nan 229 235 240 246 254 258 262 264 266 267 264 258 257 nan nan nan nan nan nan 277 265 nan nan nan nan 285 nan 288 283
nan nan nan nan nan nan nan nan nan nan nan nan nan nan nan nan nan nan nan nan nan nan nan 253 261 263 266 266 268 nan nan nan 253 nan nan nan nan nan nan nan nan nan nan nan nan nan 267 280 277
nan nan nan nan nan nan nan nan nan nan nan nan nan nan nan nan nan nan nan nan nan nan nan nan 259 265 269 274 273 268 nan nan nan nan nan nan nan nan nan nan nan nan nan nan nan nan nan nan nan
nan nan nan nan nan nan nan nan nan nan nan nan nan nan nan nan nan nan nan nan nan nan nan nan nan nan nan nan nan nan 264 263 nan nan nan nan nan nan nan nan nan nan nan nan nan nan nan nan nan
nan nan nan nan nan nan nan nan nan nan nan nan nan nan nan nan nan nan nan nan nan nan nan nan nan nan nan nan nan nan nan nan nan nan nan nan nan nan nan nan nan nan nan nan nan nan nan nan nan
nan nan nan nan nan nan nan nan nan nan nan nan nan nan nan nan nan nan nan nan nan nan nan nan nan nan nan nan nan nan nan nan nan nan nan nan nan nan nan nan nan nan nan nan nan nan nan nan nan